N1MCJ Weather Reports


Display with metric or nautical units.
time (UTC)temp
F
wind
direction
speed
MPH
gust
MPH
rain 1hr
in
rain 24hr
in
rain mn
in
humidity
%
barometer
mb
20260504150906 63 56 3.0 5.0 0.00 0.00 0.00 39 1004.0
20260504140852 61 7 6.0 10.0 0.00 0.00 0.00 39 1004.0
20260504080747 43 48 0.0 0.0 0.00 0.00 0.00 67 1003.6
20260504050709 42 57 0.0 0.0 0.00 0.00 0.00 66 1003.4
20260504045203 42 57 0.0 0.0 0.00 0.00 0.00 64 1003.4
20260504043701 42 57 0.0 0.0 0.00 0.00 0.00 64 1003.5
20260504042158 42 56 0.0 0.0 0.00 0.00 0.00 65 1003.3
20260504040653 42 57 0.0 0.0 0.00 0.00 0.00 65 1003.2
20260504035149 42 57 0.0 0.0 0.00 0.00 0.00 62 1003.3
20260504033647 42 57 0.0 0.0 0.00 0.00 0.00 63 1003.2
20260504032144 43 57 0.0 0.0 0.00 0.00 0.00 63 1002.9
20260504030640 42 56 0.0 0.0 0.00 0.00 0.00 66 1003.3
20260504025136 43 56 0.0 0.0 0.00 0.00 0.00 62 1003.2
20260504023633 43 56 0.0 0.0 0.00 0.00 0.00 63 1003.4
20260504022133 44 56 0.0 0.0 0.00 0.00 0.00 58 1003.3
20260504020630 44 56 0.0 0.0 0.00 0.00 0.00 59 1003.2
20260504015125 45 56 0.0 0.0 0.00 0.00 0.00 60 1003.1
20260504013621 45 56 0.0 0.0 0.00 0.00 0.00 60 1002.8
20260504012119 46 55 0.0 0.0 0.00 0.00 0.00 59 1002.8
20260504010620 48 54 0.0 1.0 0.00 0.00 0.00 54 1002.5
20260504005116 49 54 0.0 0.0 0.00 0.00 0.00 52 1002.3
20260504003613 50 55 0.0 0.0 0.00 0.00 0.00 50 1002.1
20260504002110 50 54 0.0 0.0 0.00 0.00 0.00 47 1001.8
20260504000607 51 52 0.0 0.0 0.00 0.00 0.00 49 1001.7
20260503235104 52 50 0.0 0.0 0.00 0.00 0.00 47 1001.6
20260503233602 53 47 0.0 0.0 0.00 0.00 0.00 40 1001.4
20260503232059 54 55 1.0 1.0 0.00 0.00 0.00 36 1001.3
20260503230555 56 33 2.0 2.0 0.00 0.00 0.00 32 1001.1
20260503225050 58 34 1.0 1.0 0.00 0.00 0.00 31 1000.9
20260503223550 58 57 4.0 6.0 0.00 0.00 0.00 31 1000.9
20260503222047 57 286 4.0 6.0 0.00 0.00 0.00 31 1000.9
20260503220543 58 34 3.0 6.0 0.00 0.00 0.00 32 1000.6
20260503215040 57 43 5.0 8.0 0.00 0.00 0.00 32 1000.9
20260503213539 58 347 3.0 3.0 0.00 0.00 0.00 35 1000.8
20260503212036 57 66 3.0 5.0 0.00 0.00 0.00 35 1000.6
20260503210531 55 59 2.0 2.0 0.00 0.00 0.00 35 1000.8
20260503205026 56 294 9.0 10.0 0.00 0.00 0.00 35 1001.1
20260503203523 55 46 0.0 1.0 0.00 0.00 0.00 35 1000.7
20260503202021 57 224 6.0 10.0 0.00 0.00 0.00 35 1000.7
20260503200518 55 24 7.0 10.0 0.00 0.00 0.00 37 1000.6
20260503195015 54 16 2.0 2.0 0.00 0.00 0.00 39 1001.0
20260503193514 55 137 4.0 6.0 0.00 0.00 0.00 38 1001.0
20260503192014 53 232 4.0 6.0 0.00 0.00 0.00 38 1001.2
20260503190510 54 298 7.0 11.0 0.00 0.00 0.00 37 1001.0
20260503185009 54 338 9.0 10.0 0.00 0.00 0.00 37 1001.0
20260503183504 53 30 3.0 6.0 0.00 0.00 0.00 37 1000.9
20260503182004 54 251 3.0 3.0 0.00 0.00 0.00 36 1000.9
20260503180500 53 125 15.0 22.0 0.00 0.00 0.00 35 1001.0
20260503174956 52 259 3.0 8.0 0.00 0.00 0.00 37 1000.9
20260503173451 53 217 6.0 7.0 0.00 0.00 0.00 38 1001.0
20260503171948 52 26 3.0 3.0 0.00 0.00 0.00 44 1000.9
20260503170444 50 50 1.0 1.0 0.00 0.00 0.00 47 1001.2